MEASAT-3B (40147 NORAD) Tracking and Keplerian Element Data

This shows tracking and keplerian element data for the satellite.

Feedback or suggestion? Click here.




ElementValue
Catalog40147
NameMEASAT-3B
Epoch Orbit1670
Epoch Day111.90045191
Epoch Year2019
RAAN63.3873
Inclination0.0482
Eccentricity0.0002573
Argument of Perigee322.1402
Mean Anonmoly239.8102
Mean Motion1.00271108
Decay Rate-2.59E-06
L11 40147U 14054B 19111.90045191 -.00000259 00000-0 00000-0 0 9999
L22 40147 0.0482 63.3873 0002573 322.1402 239.8102 1.00271108 16702

Live tracking and technical data element details for MEASAT-3B (NORAD 40147). MEASAT-3B can be tracked NOW for your location showing map with azimuth and elevation plus other details from your city location.

Track the satellite on the map from your city or location and see movement details for azimuth, elevation, latitude, longitude, range, height, and movement on the map or in text.







IsCatalogInMostPopularTable: catalog: 40147, numindb: 173
Update: records affected: 1



GetName: 40147 MEASAT-3B

Hit Count: updated at: Tue, 23 Apr 2019 06:27:46 GMT